Weather in Chupa

Russia / Republic of Karelia     62°06′29″N   34°15′00″E
temp.,
°C
wind,
m/s
gust,
m/s
humid.,
%
clouds,
%
prec.,
mm/h
press.,
hPa
HPBL,
m
1 march, mon
mon100:00+1wsw389597 0.0 1016431
03:000wsw5129398 0.0 1015494
06:00+1w51298100 0.0 1012624
09:00+2w51298100 0.0 1011537
12:00+1w412100100 0.0 1009578
15:00+2w51399100 0.0 1008651
18:00+2w513100100 0.1 1006635
21:00+1w5129499 0.2 1004939
2 march, tue
tue200:000wnw5138677 0.1 1004764
03:00−1w5148639 0.1 1004654
06:00−3wnw513860 0.0 1003662
09:00−3wnw4128914 0.0 1004666
12:00−1nw51184100 0.1 10051340
15:00−1nw5117696 0.2 10081446
18:00−5nw3128389 0.0 1010628
21:00−7wnw388644 0.0 1012184
3 march, wed
wed300:00−7w399132 0.0 1012208
03:00−6w3109432 0.0 1012335
06:00−4wnw4119392 0.1 1009490
09:00−4wnw4109192 0.1 1010514
12:00−2wnw479190 0.0 1009567
15:00−1wnw488595 0.1 1008889
18:00−2wsw3992100 0.0 1004421
21:00−3s2797100 0.2 999281
4 march, thu
thu400:00−1sw2898100 5.1 994570
03:00−3n61293100 7.8 993718
06:00−5nnw499499 0.1 994450
09:00−7nnw489499 0.3 996354
12:00−6n489099 0.0 998607
15:00−5nnw488899 0.1 999828
18:00−7nw389191 0.0 1000262
21:00−10nw279481 0.0 1002146
5 march, fri
fri500:00−12wnw239653 0.0 100351
03:00−11nw229775 0.1 100556
06:00−12nw119698 0.1 100621
09:00−12n119597 0.1 100881
12:00−9ne1390100 0.2 1010458
15:00−9nne1288100 0.4 1011507
18:00−12nne1293100 0.1 101321
21:00−16nnw119792 0.1 101520